Location: Poughquag
(41.6090°N, 73.6820°W)
Time: 12:48:47
(UTC-04:00)

Tiros 1 despin weight - Pass Details

Date: 07 June 2020
Orbit: 593 x 642 km, 48.2° (Epoch: 07 July)

Event Time Altitude Azimuth Distance (km) Brightness Sun altitude
Rises 09:35:26 0° 259° (W) 2,935 ? 44.8°
Reaches altitude 10° 09:37:50 10° 265° (W) 2,023 ? 45.2°
Maximum altitude 09:42:23 51° 342° (NNW) 794 ? 46.1°
Drops below altitude 10° 09:46:54 10° 59° (ENE) 2,004 ? 46.9°
Sets 09:49:16 0° 64° (ENE) 2,904 ? 47.3°
